Regional Weather Roundup
Issued by NWS

Home | Current Version | Previous Version | Text Only | Print | Product List | Glossary Off
Versions: 1 2 3 4 5 6 7 8 9 10 11 12 13 14 15 16 17 18 19 20 21 22 23 24 25 26 27 28 29 30 31 32 33 34 35 36 37 38 39 40 41 42 43 44 45 46 47 48 49 50

993
ASUS45 KSLC 141910
RWRUT

UTAH REGIONAL WEATHER ROUNDUP
NATIONAL WEATHER SERVICE SALT LAKE CITY UT
1200 PM MST THU DEC 14 2017

UTZ001>011-023>025-142000-

NORTHERN UTAH

CITY           SKY/WX    TMP DP  RH WIND       PRES   REMARKS
BRIGHAM CITY   SUNNY     32  28  85 CALM      30.46F
DUGWAY         SUNNY     34  22  62 VRB1      30.45F
HILL AFB       SUNNY     33  26  77 S8        30.42F WCI  26
LOGAN          SUNNY     30  22  72 W3        30.46F
OGDEN          SUNNY     34  27  75 S7        30.43F WCI  28
SALT LAKE CITY MOSUNNY   36  27  69 SE3       30.45F
TOOELE VALLEY  SUNNY     36  28  75 CALM      30.45F
WENDOVER       SUNNY     33  21  61 SE5       30.46F WCI  29
HEBER CITY       N/A     37  23  56 CALM      30.36F
WEST JORDAN    SUNNY     33  29  85 NW3       30.45F

$$

UTZ011>015-024>027-142000-

CENTRAL/NORTHEAST UTAH

CITY           SKY/WX    TMP DP  RH WIND       PRES   REMARKS
PROVO AIRPORT  CLOUDY    33  25  72 W6        30.46F WCI  28
MOAB/CANYONLAN SUNNY     48  19  31 NE18G24   30.28F
DELTA          SUNNY     32  21  64 CALM      30.44F
PRICE          SUNNY     42  21  43 VRB3      30.29F
RICHFIELD      SUNNY     37  23  56 N6        30.40F WCI  33
ROOSEVELT      SUNNY     39  19  45 SE3       30.38F
VERNAL         SUNNY     41  21  44 SW10      30.34F

$$

UTZ013>016-019>022-027-142000-

SOUTHERN UTAH

CITY           SKY/WX    TMP DP  RH WIND       PRES   REMARKS
BRYCE CANYON     N/A    N/A N/A N/A MISG      30.30F
CEDAR CITY     SUNNY     39  20  46 N10       30.34F WCI  32
MILFORD        SUNNY     38  22  52 N16       30.40F WCI  29
ST GEORGE      CLEAR     54  22  28 S5        30.28F
HANKSVILLE     SUNNY     46  19  34 CALM      30.33F
KANAB          SUNNY     55  16  21 NW9       30.27F
BLANDING         N/A     48  14  26 N14G23    30.25S

$$

REGIONAL REPORTS     COLORADO/ARIZONA

CITY           SKY/WX    TMP DP  RH WIND       PRES   REMARKS
CRAIG, CO      SUNNY     32  18  56 NW16G22   30.32F WCI  21
GRAND JUNCTION SUNNY     46  15  28 N18G24    30.28F
RIFLE, CO      MOSUNNY   42  16  34 NW16      30.27F
MONTROSE, CO   PTSUNNY   38  20  48 W6        30.29F WCI  33
CORTEZ, CO     SUNNY     49  21  33 N13G21    30.13F
COLORADO CITY    N/A     50  19  29 NW16      30.27F
PAGE, AZ       SUNNY     53  21  28 E8        30.22F
GRAND CANYON   SUNNY     44  16  32 NE26G37   30.20F
KINGMAN, AZ    SUNNY     58  21  24 N24G33    30.17S
FLAGSTAFF, AZ  SUNNY     42  16  34 NE24G38   30.14F

$$

REGIONAL REPORTS    NEVADA/IDAHO/WYOMING

CITY           SKY/WX    TMP DP  RH WIND       PRES   REMARKS
LAS VEGAS, NV  SUNNY     64  22  20 N15       30.24F
ELY, NY        SUNNY     38  22  52 N13       30.39F WCI  30
ELKO, NV       SUNNY     33  22  63 VRB3      30.45F
POCATELLO, ID  CLOUDY    23  21  92 CALM      30.50F FOG
BURLEY, ID     CLOUDY    24  22  91 CALM      30.48F FOG
FORT BRIDGER,    N/A     34  21  59 W15G23    30.37S WCI  24
EVANSTON, WY   SUNNY     32  23  69 SW7       30.36F WCI  26
ROCK SPRINGS,  CLOUDY    30  23  75 W13       30.32F WCI  20

$$




USA.gov is the U.S. government's official web portal to all federal, state and local government web resources and services.